User: anonymous   Login
Location: Unspecified
(0.0000°N, 0.0000°E)
Time: 01:34:38
(UTC+00:00)
Language:

RUBIN 2 - Orbit

View from above orbital plane
View from above orbital plane
View from above satellite
View from above satellite

Ground track
Ground track

The orbit data is extracted from the following two-line orbital elements,

1 27605U 02058A   18114.77776071 -.00000056  00000-0  12871-4 0  9997
2 27605  64.5557 236.2276 0059817 341.1395  18.7490 14.74978505825439
Epoch (UTC): 24 April 2018 18:39:58
Eccentricity: 0.0059817
inclination: 64.5557°
perigee height: 603 km
apogee height: 687 km
right ascension of ascending node: 236.2276°
argument of perigee: 341.1395°
revolutions per day: 14.74978505
mean anomaly at epoch: 18.7490°
orbit number at epoch: 82543

The dashed part of the orbit path shows where the satellite is in the earth's shadow,  

DLR